Grand Forks, ND

7:27 AM CST on December 14, 2017 (GMT -0600)
Grand Forks International

Weather History for KGFK - March, 2012

Change the Weather History Date:

Wednesday, March 14, 2012

  Actual Average Record
Temperature  
Mean Temperature 44 °F 24 °F  
Max Temperature 54 °F 33 °F 65 °F (2015)
Min Temperature 33 °F 15 °F -21 °F (1956)
Degree Days  
Heating Degree Days 21 41  
Month to date heating degree days 541 622  
Since 1 July heating degree days 6378 7772  
Cooling Degree Days 0 0  
Month to date cooling degree days 0 0  
Year to date cooling degree days 0 0  
Moisture  
Dew Point 33 °F    
Average Humidity 59    
Maximum Humidity 86    
Minimum Humidity 32    
Precipitation  
Precipitation 0.00 in 0.03 in 0.69 in (1973)
Month to date precipitation 0.44 0.42  
Year to date precipitation 1.33 1.49  
Snow  
Snow 0.00 in 0.30 in 4.00 in (1980)
Month to date snowfall 5.0 4.1  
Since 1 July snowfall 21.9 41.3  
Snow Depth 0.00 in    
Sea Level Pressure  
Sea Level Pressure 29.82 in    
Wind  
Wind Speed 10 mph (NW)    
Max Wind Speed 23 mph    
Max Gust Speed 29 mph    
Visibility 10 miles    
Events      
T = Trace of Precipitation, MM = Missing Value Source: NWS Daily Summary

Daily Weather History Graph

Daily Weather History Graph

Search for Another Location

Airport or City:

Trip Planner

Search our weather history database for the weather conditions in past years. The results will help you decide how hot, cold, wet, or windy it might be!

Date:

Astronomy

Mar. 14, 2012 Rise Set
Actual Time 7:42 AM CDT 7:33 PM CDT
Civil Twilight 7:11 AM CDT 8:04 PM CDT
Nautical Twilight 6:35 AM CDT 8:40 PM CDT
Astronomical Twilight 5:59 AM CDT 9:17 PM CDT
Moon 2:39 AM CDT 11:24 AM CDT
Length of Visible Light 12h 52m
Length of Day
11h 50m
Waning Gibbous, 54% of the Moon is Illuminated
Mar 14
Waning Gibbous
Mar 14
Last Quarter
Mar 22
New
Mar 30
First Quarter
Apr 6
Full

Hourly Weather History & Observations

Time (CDT) Temp. Windchill Dew Point Humidity Pressure Visibility Wind Dir Wind Speed Gust Speed Precip Events Conditions
12:53 AM 48.0 °F - 44.1 °F 86% 29.50 in 10.0 mi SSE 11.5 mph - N/A   Clear
1:53 AM 48.9 °F - 45.0 °F 86% 29.49 in 8.0 mi South 16.1 mph - N/A   Clear
2:53 AM 48.9 °F - 45.0 °F 86% 29.48 in 8.0 mi South 18.4 mph - N/A   Partly Cloudy
3:53 AM 46.4 °F 40.4 °F 42.8 °F 87% 29.47 in 7.0 mi South 13.8 mph - N/A   Scattered Clouds
4:53 AM 46.9 °F - 39.0 °F 74% 29.56 in 10.0 mi WSW 15.0 mph - N/A   Scattered Clouds
5:53 AM 46.9 °F - 36.0 °F 66% 29.62 in 10.0 mi NW 16.1 mph - N/A   Mostly Cloudy
6:53 AM 44.1 °F 36.5 °F 32.0 °F 63% 29.69 in 10.0 mi NNW 17.3 mph - N/A   Scattered Clouds
7:53 AM 39.9 °F 33.9 °F 30.9 °F 70% 29.76 in 10.0 mi NW 9.2 mph - N/A   Scattered Clouds
8:53 AM 42.1 °F 37.1 °F 30.0 °F 62% 29.80 in 10.0 mi NNW 8.1 mph - N/A   Mostly Cloudy
9:53 AM 44.1 °F 37.7 °F 30.0 °F 58% 29.85 in 10.0 mi WNW 12.7 mph - N/A   Mostly Cloudy
10:53 AM 48.0 °F - 26.1 °F 42% 29.88 in 10.0 mi NNW 15.0 mph 25.3 mph N/A   Mostly Cloudy
11:53 AM 50.0 °F - 27.0 °F 41% 29.88 in 10.0 mi NNW 19.6 mph 25.3 mph N/A   Mostly Cloudy
12:53 PM 51.1 °F - 28.0 °F 41% 29.92 in 10.0 mi NW 13.8 mph - N/A   Mostly Cloudy
1:53 PM 52.0 °F - 28.9 °F 41% 29.94 in 10.0 mi NW 11.5 mph 19.6 mph N/A   Mostly Cloudy
2:53 PM 53.1 °F - 27.0 °F 37% 29.92 in 10.0 mi NNW 10.4 mph - N/A   Scattered Clouds
3:53 PM 52.0 °F - 27.0 °F 38% 29.94 in 10.0 mi NNW 9.2 mph - N/A   Mostly Cloudy
4:53 PM 53.1 °F - 26.1 °F 35% 29.96 in 10.0 mi NW 8.1 mph - N/A   Mostly Cloudy
5:53 PM 53.1 °F - 25.0 °F 34% 29.96 in 10.0 mi NNW 8.1 mph - N/A   Mostly Cloudy
6:53 PM 46.9 °F - 30.0 °F 52% 29.97 in 10.0 mi North 3.5 mph - N/A   Mostly Cloudy
7:53 PM 43.0 °F 41.3 °F 37.0 °F 80% 30.00 in 10.0 mi WNW 3.5 mph - N/A   Mostly Cloudy
8:53 PM 41.0 °F 39.0 °F 33.1 °F 73% 30.01 in 10.0 mi NNW 3.5 mph - N/A   Mostly Cloudy
9:53 PM 39.0 °F - 32.0 °F 76% 30.02 in 10.0 mi Calm Calm - N/A   Mostly Cloudy
10:53 PM 37.4 °F - 30.2 °F 75% 29.99 in 10.0 mi Calm Calm - N/A   Mostly Cloudy
11:53 PM 37.0 °F - 30.9 °F 79% 30.02 in 10.0 mi Calm Calm - N/A   Mostly Cloudy